Location: Axtheid
(49.6213°N, 11.8205°E)
Time: 13:49:46
(UTC+00:00)

Nadezhda 4 Rocket - Pass Details

Date: 24 January 2021
Orbit: 949 x 993 km, 82.9° (Epoch: 25 February)

Event Time Altitude Azimuth Distance (km) Brightness Sun altitude
Rises 17:00:55 0° 177° (S) 3,668 7.2 -10.6°
Reaches altitude 10° 17:03:27 10° 174° (S) 2,719 6.5 -11.0°
Maximum altitude 17:09:36 65° 94° (E) 1,061 4.0 -12.0°
Drops below altitude 10° 17:15:43 10° 14° (NNE) 2,707 6.1 -12.9°
Sets 17:18:13 0° 12° (NNE) 3,652 6.7 -13.3°
